TimeMDT,TemperatureF,Dew PointF,Humidity,Sea Level PressureIn,VisibilityMPH,Wind Direction,Wind SpeedMPH,Gust SpeedMPH,PrecipitationIn,Events,Conditions,WindDirDegrees,DateUTC
12:15 AM,32.0,24.8,75,30.24,10.0,East,3.5,-,N/A,,Clear,100,2013-03-10 07:15:00
12:35 AM,30.2,24.8,80,30.24,10.0,ESE,3.5,-,N/A,,Clear,120,2013-03-10 07:35:00
12:55 AM,30.2,23.0,75,30.25,10.0,SSE,4.6,-,N/A,,Clear,150,2013-03-10 07:55:00
1:15 AM,28.4,23.0,80,30.26,10.0,Calm,Calm,-,N/A,,Clear,0,2013-03-10 08:15:00
1:35 AM,28.4,24.8,86,30.27,10.0,NE,3.5,-,N/A,,Clear,40,2013-03-10 08:35:00
1:55 AM,28.4,24.8,86,30.28,10.0,NE,4.6,-,N/A,,Clear,40,2013-03-10 08:55:00
3:15 AM,28.4,23.0,80,30.28,10.0,NNW,5.8,-,N/A,,Clear,340,2013-03-10 09:15:00
3:35 AM,28.4,24.8,86,30.28,10.0,ENE,4.6,-,N/A,,Clear,60,2013-03-10 09:35:00
3:55 AM,30.2,23.0,75,30.28,10.0,Calm,Calm,-,N/A,,Clear,0,2013-03-10 09:55:00
4:15 AM,28.4,23.0,80,30.28,10.0,Calm,Calm,-,N/A,,Clear,0,2013-03-10 10:15:00
4:35 AM,30.2,23.0,75,30.29,10.0,Calm,Calm,-,N/A,,Clear,0,2013-03-10 10:35:00
4:55 AM,28.4,21.2,74,30.29,10.0,ENE,3.5,-,N/A,,Clear,60,2013-03-10 10:55:00
5:15 AM,26.6,23.0,86,30.29,10.0,East,3.5,-,N/A,,Clear,100,2013-03-10 11:15:00
5:35 AM,26.6,26.6,100,30.30,10.0,ENE,4.6,-,N/A,,Clear,70,2013-03-10 11:35:00
6:35 AM,28.4,24.8,86,30.32,10.0,Calm,Calm,-,N/A,,Clear,0,2013-03-10 12:35:00
6:55 AM,24.8,23.0,93,30.33,15.0,Calm,Calm,-,N/A,,Clear,0,2013-03-10 12:55:00
7:47 AM,24.8,23.0,93,30.34,15.0,Variable,4.6,-,N/A,,Clear,0,2013-03-10 13:47:00
8:47 AM,26.6,26.6,100,30.37,15.0,Variable,3.5,-,N/A,,Clear,0,2013-03-10 14:47:00
9:47 AM,33.8,24.8,70,30.39,15.0,Calm,Calm,-,N/A,,Clear,0,2013-03-10 15:47:00
10:47 AM,37.4,24.8,60,30.38,15.0,SE,5.8,-,N/A,,Clear,140,2013-03-10 16:47:00
11:50 AM,37.4,21.2,52,30.40,15.0,Variable,3.5,-,N/A,,Clear,0,2013-03-10 17:50:00
12:47 PM,39.2,24.8,56,30.38,15.0,Variable,5.8,-,N/A,,Clear,0,2013-03-10 18:47:00
1:47 PM,39.2,21.2,49,30.36,15.0,Variable,5.8,-,N/A,,Clear,0,2013-03-10 19:47:00
2:52 PM,42.8,23.0,46,30.32,15.0,SW,4.6,-,N/A,,Partly Cloudy,230,2013-03-10 20:52:00
3:50 PM,44.6,24.8,46,30.32,15.0,Variable,5.8,-,N/A,,Clear,0,2013-03-10 21:50:00
4:55 PM,46.4,23.0,40,30.29,15.0,Variable,5.8,-,N/A,,Clear,0,2013-03-10 22:55:00
6:50 PM,42.8,39.2,87,30.30,15.0,Variable,5.8,-,N/A,,Scattered Clouds,0,2013-03-11 00:50:00
7:50 PM,37.4,26.6,65,30.32,15.0,Variable,5.8,-,N/A,,Scattered Clouds,0,2013-03-11 01:50:00
8:52 PM,35.6,24.8,65,30.32,15.0,Variable,5.8,-,N/A,,Scattered Clouds,0,2013-03-11 02:52:00
9:15 PM,37.4,26.6,65,30.32,10.0,NW,10.4,-,N/A,,Clear,310,2013-03-11 03:15:00
9:35 PM,37.4,24.8,60,30.33,10.0,NNW,6.9,-,N/A,,Clear,330,2013-03-11 03:35:00
9:55 PM,35.6,24.8,65,30.33,10.0,NW,4.6,-,N/A,,Clear,320,2013-03-11 03:55:00
10:15 PM,37.4,24.8,60,30.34,10.0,Calm,Calm,-,N/A,,Clear,0,2013-03-11 04:15:00
10:35 PM,33.8,23.0,65,30.34,10.0,Calm,Calm,-,N/A,,Clear,0,2013-03-11 04:35:00
11:35 PM,30.2,24.8,80,30.34,10.0,WSW,3.5,-,N/A,,Clear,240,2013-03-11 05:35:00
11:55 PM,32.0,24.8,75,30.34,10.0,Calm,Calm,-,N/A,,Clear,0,2013-03-11 05:55:00
12:15 AM,30.2,24.8,80,30.33,10.0,Calm,Calm,-,N/A,,Clear,0,2013-03-11 06:15:00
12:35 AM,32.0,24.8,75,30.33,10.0,Calm,Calm,-,N/A,,Clear,0,2013-03-11 06:35:00
12:55 AM,28.4,24.8,86,30.33,10.0,South,4.6,-,N/A,,Clear,170,2013-03-11 06:55:00